Theta_e
329 330 330 330 330 329 329 330 338 342 342 343 344 344 343 342 340 340 339 342 340 339 339 339 337 330 325 321 317 313 317 325
329 329 330 330 330 329 329 331 339 342 342 343 344 345 344 343 342 341 340 340 340 340 339 338 336 333 329 323 321 319 325 327
328 328 329 330 330 330 329 331 333 338 342 342 340 342 343 342 343 343 342 341 341 340 340 338 337 335 332 326 323 323 326 327
328 328 328 330 330 330 329 333 334 340 340 341 342 341 341 343 342 342 343 342 341 341 340 338 337 336 334 330 325 325 325 327
327 328 328 330 330 330 330 331 336 339 341 340 340 342 342 342 340 340 341 341 340 340 340 339 338 336 335 335 328 324 326 327
326 327 327 330 330 329 329 330 335 338 340 339 340 339 339 341 341 341 341 341 339 338 339 339 339 337 335 335 333 325 326 326
329 328 329 330 330 330 330 330 334 340 338 339 340 338 337 338 340 342 341 340 340 339 338 339 338 337 336 335 334 331 326 326
325 326 328 329 330 330 330 329 329 329 331 337 339 338 337 337 338 339 341 341 341 338 337 337 336 336 336 336 335 333 331 327
317 318 319 320 324 327 328 329 329 329 329 329 330 333 338 338 337 337 337 336 337 338 337 336 336 335 335 336 335 334 332 330
311 313 314 315 318 320 323 322 322 326 328 328 330 333 333 338 337 337 337 338 337 337 337 337 335 337 335 335 335 334 331 331
308 309 309 309 310 313 316 319 320 321 323 326 329 333 335 336 336 336 336 335 336 337 336 335 337 335 335 335 335 335 332 331
310 308 307 307 307 306 305 305 307 311 313 319 325 327 327 330 333 334 334 337 336 336 334 333 334 334 334 335 334 334 334 332
309 311 311 309 309 309 308 308 306 304 303 304 307 314 320 325 325 326 328 334 332 335 333 334 334 333 333 333 335 334 334 333
310 310 310 309 306 304 306 308 308 307 308 304 303 303 305 310 313 313 320 327 329 332 332 334 334 334 333 333 332 333 332 332
307 305 303 303 303 301 301 302 301 303 305 308 308 304 303 303 305 308 309 311 315 321 326 330 331 333 334 333 333 333 332 332
305 304 303 303 302 301 301 302 300 303 302 302 304 306 306 303 304 305 306 308 309 313 317 321 327 330 332 333 333 333 332 332
303 302 301 302 301 301 301 301 301 300 300 299 300 302 302 303 305 304 305 305 305 306 313 317 319 324 328 330 329 328 329 331
301 300 300 300 300 301 301 301 301 301 300 300 300 301 301 300 300 304 304 304 303 304 307 314 318 321 322 327 328 329 327 330
301 301 301 301 301 301 301 301 301 301 301 301 301 301 301 301 300 300 301 303 303 304 304 309 314 317 319 323 326 326 328 326
Wind_Speed
32 28 25 32 34 39 42 40 44 43 41 47 45 41 39 38 41 43 43 45 46 45 43 41 38 37 37 37 36 37 35 32
26 28 23 32 35 40 40 43 46 45 46 49 51 49 48 42 41 41 42 47 48 45 43 41 40 39 39 38 37 38 36 34
34 31 34 30 36 36 40 41 45 46 47 47 46 53 49 50 46 44 44 45 52 49 46 46 44 42 41 40 40 41 38 40
36 39 37 39 37 37 39 41 45 49 48 44 45 49 52 50 49 51 48 44 46 52 51 49 47 46 45 42 44 44 46 44
36 39 31 43 40 40 39 36 42 45 46 47 46 50 53 55 59 57 53 50 47 48 52 52 50 47 48 44 45 47 49 49
43 45 35 38 41 40 41 32 38 38 42 45 46 46 49 49 51 53 54 57 51 49 49 53 53 50 50 47 45 52 52 51
17 19 26 24 23 22 22 22 22 33 42 39 40 41 39 40 42 47 48 50 56 53 54 56 56 53 53 50 47 47 55 55
37 36 30 26 21 17 14 12 10 11 15 25 36 36 39 41 45 46 49 46 45 48 49 53 56 57 58 55 52 52 53 56
37 34 30 25 20 19 15 10 7 15 13 14 19 18 34 39 40 42 43 46 49 45 45 49 53 55 58 57 56 54 53 55
34 29 27 22 17 14 12 11 11 7 3 10 11 18 26 30 37 42 43 44 45 48 44 48 50 56 56 59 58 56 56 56
35 33 30 26 19 12 6 5 6 8 9 9 7 11 13 18 21 29 36 38 41 41 41 43 50 51 56 59 58 58 59 59
25 24 22 20 18 17 14 13 10 8 9 6 2 5 5 7 11 12 21 36 36 38 35 38 43 46 52 60 57 58 59 61
17 17 14 13 11 10 11 12 12 9 9 10 8 4 4 6 6 13 11 10 3 38 32 38 39 43 46 52 59 57 58 58
10 13 13 13 13 12 7 5 6 8 9 10 9 10 8 5 6 9 11 20 25 22 8 38 40 38 43 47 50 54 57 53
1 2 2 3 9 11 10 12 11 10 9 9 10 9 9 10 13 11 9 11 14 16 17 19 28 42 36 40 50 56 54 53
6 4 2 3 4 9 9 10 11 11 14 11 11 11 11 10 11 15 16 15 16 17 18 21 25 26 43 52 53 57 60 55
9 2 3 5 2 4 5 9 11 14 13 11 10 10 14 14 15 14 17 20 21 19 19 19 21 27 25 44 44 45 42 44
6 1 3 7 8 10 9 11 11 16 17 17 12 11 14 14 15 17 19 21 20 21 19 20 21 23 27 27 34 47 44 40
8 7 10 12 11 13 14 14 16 19 18 20 19 18 18 18 16 15 16 19 22 22 21 23 24 23 23 27 29 32 44 46
Wind_Direction
250 236 231 239 220 213 228 224 216 211 205 205 204 204 207 210 214 216 211 212 213 217 219 220 218 213 212 209 206 200 202 198
250 234 239 226 218 213 215 221 212 208 209 201 202 204 204 206 213 215 213 211 209 210 216 221 219 217 216 211 205 199 196 200
249 247 233 224 215 210 213 223 215 213 216 209 210 205 207 207 209 214 216 208 210 208 217 221 222 219 216 211 207 197 199 200
243 248 245 221 212 208 214 217 219 214 214 217 210 206 206 209 212 216 215 214 211 213 217 220 220 225 221 213 210 206 200 199
241 234 240 217 210 208 209 209 214 220 216 216 217 204 203 207 211 214 217 219 219 218 218 221 222 227 221 221 216 211 208 200
236 232 230 216 205 205 208 200 210 219 220 220 217 217 211 209 211 217 218 218 218 220 219 223 223 226 227 223 220 213 213 213
132 145 155 136 132 150 167 169 169 203 216 223 222 222 222 218 218 217 220 219 215 218 224 221 226 227 227 228 228 225 218 218
90 101 112 108 109 120 141 167 169 176 183 206 225 226 216 227 223 221 221 219 215 221 222 224 226 228 230 233 231 229 224 222
86 88 87 94 105 110 115 120 134 208 208 218 223 217 225 227 229 227 228 233 233 227 232 228 226 229 231 234 236 232 224 226
75 72 74 77 87 90 114 102 91 99 167 228 236 226 228 227 228 233 232 233 237 236 238 237 231 230 232 233 233 232 230 229
72 72 70 67 66 66 54 66 70 46 51 80 149 192 199 214 223 238 245 250 244 237 241 243 232 232 233 236 235 235 235 232
60 67 72 71 70 65 59 44 36 26 10 13 85 138 104 172 188 216 245 233 242 235 237 241 238 237 237 237 239 239 238 236
29 30 27 19 31 39 37 40 28 24 15 16 13 347 274 238 263 269 252 224 284 220 231 233 235 236 237 239 236 241 241 241
24 33 25 10 358 13 1 349 349 343 345 357 4 349 343 322 270 293 295 265 273 275 298 226 228 227 232 235 238 240 242 242
157 119 142 57 342 12 12 15 9 1 330 317 319 337 346 326 313 306 309 297 282 269 273 264 245 235 232 237 240 236 237 240
188 213 43 129 359 4 15 345 357 357 342 353 332 315 298 315 315 307 303 305 303 291 273 266 256 254 243 244 241 238 234 237
142 167 19 88 348 332 304 316 343 330 319 331 329 331 322 320 291 294 298 303 307 301 289 275 262 247 255 248 248 239 234 233
129 3 6 334 322 326 311 325 328 327 324 329 318 314 311 310 303 303 296 290 296 300 296 288 278 265 251 248 253 250 256 249
37 3 322 317 319 322 305 288 304 311 308 307 311 310 304 307 311 297 294 290 284 287 290 287 284 275 268 257 249 250 251 254